Weather History for KPOU - February, 2013

Change the Weather History Date:

Sunday, February 17, 2013

  Actual Average Record
Temperature  
Mean Temperature 24 °F 29 °F  
Max Temperature 30 °F 40 °F 60 °F (1981)
Min Temperature 17 °F 18 °F -12 °F (1963)
Degree Days  
Heating Degree Days 41 36  
Month to date heating degree days 626 637  
Since 1 July heating degree days 3777 4189  
Cooling Degree Days 0 0  
Month to date cooling degree days 0 0  
Year to date cooling degree days 0 0  
Moisture  
Dew Point 3 °F    
Average Humidity 40    
Maximum Humidity 50    
Minimum Humidity 29    
Precipitation  
Precipitation 0.00 in 0.09 in 0.83 in (1954)
Month to date precipitation 0.63 1.58  
Year to date precipitation 2.68 4.66  
Sea Level Pressure  
Sea Level Pressure 29.75 in    
Wind  
Wind Speed 16 mph (NW)    
Max Wind Speed 28 mph    
Max Gust Speed 39 mph    
Visibility 10 miles    
Events      
T = Trace of Precipitation, MM = Missing Value Source: NWS Daily Summary

Daily Weather History Graph

Daily Weather History Graph

Search for Another Location

Airport or City:

Trip Planner

Search our weather history database for the weather conditions in past years. The results will help you decide how hot, cold, wet, or windy it might be!

Date:

Astronomy

Feb. 17, 2013 Rise Set
Actual Time 6:47 AM EST 5:31 PM EST
Civil Twilight 6:19 AM EST 6:00 PM EST
Nautical Twilight 5:47 AM EST 6:32 PM EST
Astronomical Twilight 5:14 AM EST 7:04 PM EST
Moon 10:32 AM EST (2/17) 12:31 AM EST (2/17)
Length of Visible Light 11h 40m
Length of Day
10h 44m
Waxing Crescent, 49% of the Moon is Illuminated
Feb 17
Waxing Crescent
Feb 17
First Quarter
Feb 25
Full
Mar 4
Last Quarter
Mar 11
New

Hourly Weather History & Observations

Time (EST) Temp. Windchill Dew Point Humidity Pressure Visibility Wind Dir Wind Speed Gust Speed Precip Events Conditions
12:53 AM 27.0 °F 13.9 °F 9.0 °F 47% 29.75 in 10.0 mi North 18.4 mph 32.2 mph N/A   Overcast
1:53 AM 27.0 °F 14.3 °F 9.0 °F 47% 29.73 in 10.0 mi North 17.3 mph 23.0 mph N/A   Overcast
2:53 AM 26.1 °F 13.6 °F 8.1 °F 47% 29.73 in 10.0 mi North 16.1 mph 25.3 mph N/A   Overcast
3:53 AM 25.0 °F 13.1 °F 9.0 °F 51% 29.71 in 10.0 mi North 13.8 mph 27.6 mph N/A   Mostly Cloudy
4:53 AM 25.0 °F 14.2 °F 8.1 °F 49% 29.71 in 10.0 mi North 11.5 mph - N/A   Overcast
5:53 AM 24.1 °F 11.5 °F 5.0 °F 44% 29.69 in 10.0 mi North 15.0 mph 21.9 mph N/A   Partly Cloudy
6:53 AM 24.1 °F 12.0 °F 3.0 °F 40% 29.68 in 10.0 mi North 13.8 mph 21.9 mph N/A   Clear
7:53 AM 24.1 °F 11.5 °F 1.0 °F 37% 29.68 in 10.0 mi North 15.0 mph 21.9 mph N/A   Clear
8:53 AM 24.1 °F 12.5 °F 3.0 °F 40% 29.67 in 10.0 mi NNW 12.7 mph 21.9 mph N/A   Clear
9:53 AM 25.0 °F 15.5 °F 3.0 °F 39% 29.66 in 10.0 mi North 9.2 mph - N/A   Clear
10:53 AM 27.0 °F 14.7 °F 3.0 °F 36% 29.66 in 10.0 mi NW 16.1 mph 28.8 mph N/A   Clear
11:53 AM 28.0 °F 14.6 °F -0.0 °F 30% 29.67 in 10.0 mi WNW 20.7 mph 32.2 mph N/A   Clear
1:53 PM 28.0 °F 13.9 °F -0.0 °F 30% 29.68 in 10.0 mi NNW 23.0 mph 31.1 mph N/A   Clear
2:53 PM 28.0 °F 14.6 °F 1.0 °F 31% 29.70 in 10.0 mi WNW 20.7 mph 29.9 mph N/A   Clear
3:53 PM 27.0 °F 13.5 °F 1.9 °F 34% 29.72 in 10.0 mi WNW 19.6 mph 32.2 mph N/A   Clear
4:53 PM 25.0 °F 11.3 °F 3.0 °F 39% 29.74 in 10.0 mi West 18.4 mph 32.2 mph N/A   Clear
5:53 PM 21.9 °F 6.5 °F 1.0 °F 40% 29.79 in 10.0 mi WNW 20.7 mph 33.4 mph N/A   Clear
6:53 PM 19.9 °F 5.7 °F 1.0 °F 44% 29.84 in 10.0 mi WNW 16.1 mph 28.8 mph N/A   Clear
7:53 PM 19.0 °F 4.0 °F 1.0 °F 46% 29.86 in 10.0 mi WNW 17.3 mph 26.5 mph N/A   Clear
8:53 PM 18.0 °F 3.6 °F -0.0 °F 45% 29.89 in 10.0 mi West 15.0 mph 21.9 mph N/A   Clear
9:53 PM 17.1 °F 5.0 °F -0.0 °F 47% 29.91 in 10.0 mi West 10.4 mph 20.7 mph N/A   Clear
10:53 PM 17.1 °F 5.0 °F 1.0 °F 50% 29.92 in 10.0 mi West 10.4 mph 25.3 mph N/A   Clear